Location: Praha
(50.0830°N, 14.4670°E)
Time: 04:57:49
(UTC+01:00)

ISS - Pass Details

Date: 26 February 2020
Orbit: 415 x 423 km, 51.6° (Epoch: 27 February)

Event Time Altitude Azimuth Distance (km) Brightness Sun altitude
Exits shadow 05:11:56 22° 199° (SSW) 969 -2.2 -17.0°
Maximum altitude 05:13:30 35° 149° (SSE) 700 -2.5 -16.7°
Drops below altitude 10° 05:16:37 10° 82° (E) 1,507 0.4 -16.2°
Sets 05:18:50 0° 73° (ENE) 2,375 1.7 -15.9°
